Погода в Костанае

Казахстан     53°12′52″N   63°37′55″E
темп.,
°C
ветер,
м/с
пор.,
м/с
влажн.,
%
обл.,
%
осадки,
мм/ч
давл.,
гПа
погр.,
м
23 января, сб
сб2300:00−17ссв2397100 0.8 102147
03:00−20ссв4898100 0.1 1024158
06:00−26ссв599896 0.1 1028163
09:00−30ссв499722 0.0 1032137
12:00−30с369618 0.0 1035180
15:00−27с34946 0.0 1037195
18:00−31ссв229640 0.0 103919
21:00−30всв119467 0.0 104019
24 января, вс
вс2400:00−30ююв129278 0.0 104019
03:00−28ю3691100 0.0 1038152
06:00−25ю5791100 0.0 1037241
09:00−26ю469193 0.0 1040178
12:00−22ююв5793100 0.0 1039255
15:00−20ю5896100 0.1 1037291
18:00−17ююв3497100 0.4 1034195
21:00−15ююз71195100 0.8 1034421
25 января, пн
пн2500:00−14ююз61094100 1.3 1033343
03:00−11ююз5994100 0.6 1031314
06:00−16юв339683 0.1 103243
09:00−7зюз369495 0.0 103090
12:00−9ююз129596 0.4 1032119
15:00−5юз239591 0.1 1031168
18:00−4зюз349257 0.0 103156
21:00−5з349122 0.0 103252
26 января, вт
вт2600:00−5зюз349143 0.0 103254
03:00−6зюз3492100 0.0 103372
06:00−6зюз4892100 0.0 1033148
09:00−7зюз4894100 0.0 1033152
12:00−4зюз5109536 0.0 1034373
15:00−4зюз589154 0.0 1033347
18:00−9юз449340 0.0 103377
21:00−9юз459448 0.0 103388
27 января, ср
ср2700:00−9юз459345 0.0 103386
03:00−9юз459047 0.0 103384
06:00−9юз478927 0.0 1033116
09:00−8зюз512904 0.0 1032237
12:00−10юз6108694 0.0 1035267
15:00−3юз689788 0.0 1033342
18:00−4юз61294100 0.0 1030380
21:00−4юз51092100 0.0 1032338